www.pogodaiklimat.ru

Погода и климат >> Архив погоды >> Мексика >> Matlapa


ПОГОДА в Matlapa

  • Прогноз погоды в Matlapa
  • Монитор погоды в Matlapa
  • Климат города

АРХИВ ПОГОДЫ в Matlapa

Время (UTC), дата Ветер
(напр.,м/с)
 
Видим.   Явления Облачность Т
(С)
Тd
(С)
f
(%)
Тe
(С)
Тes
(С)
Комфортность P
(гПа)
Po
(гПа)
Тmin
(С)
Tmax
(С)
R
(мм)
R24
(мм)
S
(см)
12 13.07 штиль 0 25 км мгла {туман} 3/3 1000 м
[Sc diur, vesp]
+21.0 +20.5 97 +26 +26 душно 1017.2 1002.0 +20.9 +34.2
15 13.07 штиль 0 25 км мгла {туман} 1/1 900 м
[Cu med, cong]
+25.0 +22.8 88 +33 +44 очень
душно
1018.4 1003.0
18 13.07 В 1 25 км мгла {туман} 3/3 1000 м
[Cu hum]
+31.0 +23.8 66 +43 +60 опасность
перегрева
1017.7 1002.4 +20.9 +32.0
21 13.07 ЮВ 1 25 км мгла {туман} 1/1 1110 м
[Cu hum]
+33.6 +23.3 55 +44 +61 опасность
перегрева
1015.8 1000.6
00 14.07 В 1 25 км мгла {туман} 1/1 1000 м
[Cu med, cong]
+32.0 +23.4 60 +43 +44 опасность
перегрева
1014.4 999.3 +20.9 +35.0
12 14.07 штиль 0 25 км мгла {туман} ясно +22.1 +21.3 95 +29 +29 очень
душно
1017.4 1002.1 +22.0 +35.0
15 14.07 СЗ 1 25 км мгла {туман} 1/1 900 м
[Cu med, cong]
+25.0 +22.6 87 +33 +43 очень
душно
1018.1 1002.7
18 14.07 СЗ 1 25 км мгла {туман} 3/3 1000 м
[Cu med, cong]
+31.0 +24.1 67 +43 +61 опасность
перегрева
1017.9 1002.5 +21.9 +31.9
12 15.07 штиль 0 25 км мгла {туман} 5/5 1000 м
[Sc diur, vesp]
+24.0 +23.4 96 +32 +32 очень
душно
1016.4 1001.0 +23.9 +34.6
15 15.07 С 1 25 км мгла {туман} 4/3 900 м
[Cu med, cong Cc]
+26.4 +23.5 84 +36 +43 очень
душно
1017.3 1002.0
18 15.07 ЮВ 1 25 км мгла {туман} 8/3 1000 м
[Cu hum Ac trans]
+30.4 +24.7 72 +43 +54 опасность
перегрева
1017.2 1001.9 +23.9 +31.2
12 16.07 штиль 0 25 км мгла {туман} 4/3 1000 м
[Sc diur, vesp Ac trans]
+24.4 +23.8 96 +33 +33 очень
душно
1016.3 1001.1 +24.3 +33.6
15 16.07 В 1 25 км мгла {туман} 6/4 900 м
[Cu med, cong Ac trans]
+26.0 +24.6 92 +37 +42 очень
душно
1017.8 1002.5
18 16.07 СЗ 1 25 км мгла {туман} 5/3 1000 м
[Cu med, cong Ac trans]
+31.6 +24.5 66 +44 +59 опасность
перегрева
1017.1 1001.8 +23.9 +32.0
21 16.07 В 1 25 км мгла {туман} 4/1 1110 м
[Cu med, cong Ac trans Ci fib]
+33.7 +23.7 56 +45 +58 опасность
перегрева
1014.9 999.7
00 17.07 штиль 0 25 км мгла {туман} 1/1 1000 м
[Cu hum]
+33.0 +24.5 61 +46 +48 опасность
перегрева
1013.0 998.0 +23.9 +35.0
12 17.07 штиль 0 25 км мгла {туман} 1/0
[Ci fib]
+23.8 +23.2 96 +32 +32 очень
душно
1017.2 1002.0 +23.7 +35.0
15 17.07 СЗ 1 25 км мгла {туман} 3/3 900 м
[Cu hum]
+27.0 +24.1 84 +37 +45 очень
душно
1018.4 1003.1
18 17.07 В 1 25 км мгла {туман} 1/1 1000 м
[Cu hum]
+32.0 +24.3 64 +44 +67 опасность
перегрева
1017.2 1002.0 +23.3 +32.6
21 17.07 В 1 25 км мгла {туман} 3/3 1110 м
[Cu med, cong]
+34.0 +23.7 55 +45 +58 опасность
перегрева
1014.9 999.7
00 18.07 штиль 0 25 км мгла {туман} 1/0
[Cs]
+34.0 +24.1 56 +46 +48 опасность
перегрева
1013.9 998.8 +23.3 +36.0
12 18.07 штиль 0 25 км мгла {туман} 8/8 600 м
[Cu Sc]
+24.2 +23.6 96 +33 +33 очень
душно
1016.4 1001.0 +24.1 +36.0
15 18.07 СЗ 1 25 км мгла {туман} 4/4 1000 м
[Cu med, cong]
+26.8 +24.2 86 +37 +44 очень
душно
1017.2 1002.0
18 18.07 СЗ 1 25 км мгла {туман} 3/3 1000 м
[Cu hum]
+31.3 +24.2 66 +43 +61 опасность
перегрева
1016.4 1001.2 +24.1 +32.2
21 18.07 В 1 25 км мгла {туман} 3/3 1110 м
[Cu med, cong]
+34.0 +24.1 56 +46 +58 опасность
перегрева
1013.5 998.4
00 19.07 В 1 25 км мгла {туман} 3/3 1000 м
[Sc diur, vesp]
+33.5 +24.3 59 +46 +47 опасность
перегрева
1011.8 996.7 +24.1 +35.8
12 19.07 штиль 0 25 км мгла {туман} 8/8 600 м
[Cu Sc]
+23.0 +22.4 96 +31 +31 очень
душно
1013.7 998.6 +22.9 +35.8
15 19.07 СЗ 1 25 км мгла {туман} 5/5 1000 м
[Cu med, cong]
+26.0 +24.0 89 +36 +41 очень
душно
1015.3 1000.0
18 19.07 СЗ 1 25 км мгла {туман} 1/1 1000 м
[Cu hum]
+32.0 +24.6 65 +45 +68 опасность
перегрева
1014.2 999.0 +22.9 +32.8
21 19.07 В 1 25 км мгла {туман} 1/1 1110 м
[Cu med, cong]
+35.2 +25.4 57 +50 +66 опасность
перегрева
1011.4 996.2

 

Местоположение метеостанции Matlapa (Мексика): широта 21.32 долгота -98.81 высота над уровнем моря 132 м.

В архиве по умолчанию представлена погода в Matlapa за последнюю неделю. Архивные данные за месяц целиком и за предыдущие месяцы, начиная с января 2011 года, Вы можете получить, выбрав интересующий диапазон дат из раскрывающегося списка и нажав кнопку "Ввод!".


*Определитесь, кто Вы:
робот инопланетянин человек

Внимание! Время в таблицах - всемирное. Для получения местного времени необходимо прибавить поправку, которая в Matlapa равна -6 ч.

Смотрите также архив погоды в соседних городах и на ближайших метеорологических станциях:

Погода в Tamuin (Мексика) (76 км)
Погода в Pachuca (Мексика) (133 км)
Погода в Rio Verde (Мексика) (139 км)
Погода в Tampico (Мексика) (139 км)
Погода в Tulancingo (Мексика) (145 км)
Погода в Tuxpan (Мексика) (152 км)
Погода в Queretaro (Мексика) (185 км)
Погода в Mexico City (Мексика) (217 км)
Погода в Institute of Geography (Мексика) (226 км)
Погода в Tlaxcala (Мексика) (230 км)

Пояснения к столбцам:

Ветер - указаны скорость ветра в м/с - средняя за 10 мин, порывы в срок и между сроками (в фигурных скобках) и направление, откуда дует ветер: С - северный, СВ - северо-восточный, В - восточный, ЮВ - юго-восточный, Ю - южный, ЮЗ - юго-западный, З - западный, СЗ - северо-западный.
Видимость - горизонтальная дальность видимости в метрах или километрах. При видимости от 1 до 10 км при отсутствии осадков обычно наблюдается дымка, при ухудшении видимости до 1 км и менее - туман. В сухую погоду видимость может ухудшаться дымом, пылью или мглою.
Явления - указаны атмосферные явления, наблюдавшиеся в срок или в последний час перед сроком; фигурными скобками обозначены явления, наблюдавшиеся между сроками (за 1-3 часа до срока); квадратными скобками обозначены град или гололедные отложения с указанием их диаметра в мм.
Облачность - указаны через наклонную черту общая и нижняя облачность в баллах и высота нижней границы облаков в метрах; квадратными скобками обозначены формы облаков: Ci - перистые, Cs - перисто-слоистые, Cc - перисто-кучевые, Ac - высококучевые, As - высокослоистые, Sc - слоисто-кучевые, Ns - слоисто-дождевые, Cu - кучевые, Cb - кучево-дождевые. Подробнее классификацию облаков см. в Атласе облаков (PDF).
T - Температура воздуха - температура, измеренная на высоте 2 м над землей.
Td - Температура точки росы - температура, при понижении до которой содержащийся в воздухе водяной пар достигнет насыщения.
f - Относительная влажность воздуха - влажноcть воздуха, измеренная на высоте 2 м над землей.
Te - Эффективная температура - температура, которую ощущает одетый по сезону человек в тени. Характеристика душности погоды. При расчете учитывается влияние влажности воздуха и скорости ветра на теплоощущения человека.
Tes - Эффективная температура на солнце - температура, которую ощущает человек, с поправкой на солнечный нагрев. Характеристика знойности погоды. Зависит от высоты солнца над горизонтом, облачности и скорости ветра. Ночью, в пасмурную погоду, а также при ветре 12 м/с и более поправка равна нулю.
P - Атмосферное давление - приведенное к уровню моря атмосферное давление.
Po - Атмосферное давление - измеренное на уровне метеостанции атмосферное давление.
Tmin - Минимальная температура - минимум температуры воздуха на высоте 2 м над землей.
Tmax - Максимальная температура - максимум температуры воздуха на высоте 2 м над землей.
R - Количество осадков - Количество выпавших осадков за период времени, мм. При наведении курсора мыши на число - период времени, за который выпало указанное количество осадков.
R24 - Количество осадков - Количество выпавших осадков за 24 часа, мм.
S - Снежный покров - Высота снежного покрова, см. При наведении курсора мыши на число - состояние снежного покрова и степень покрытия местности в баллах.